Location: *
(44.1392°N, 4.8079°E)
Time: 15:11:19
(UTC+00:00)

Lacrosse 5 rocket - Pass Details

Date: 24 October 2021
Orbit: 459 x 633 km, 57.0° (Epoch: 04 December)

Event Time Altitude Azimuth Distance (km) Brightness Sun altitude
Exits shadow 03:16:12 19° 26° (NNE) 1,436 3.8 -31.1°
Drops below altitude 10° 03:17:39 10° 37° (NE) 1,931 4.7 -30.9°
Sets 03:20:09 0° 46° (NE) 2,863 5.8 -30.4°
